Regional Weather Roundup
Issued by NWS Albany, NY

Home | Current Version | Previous Version | Text Only | Print | Product List | Glossary On
Versions: 1 2 3 4 5 6 7 8 9 10 11 12 13 14 15 16 17 18 19 20 21 22 23 24 25 26 27 28 29 30 31 32 33 34 35 36 37 38 39 40 41 42 43 44 45 46 47 48 49 50
000
ASUS41 KALY 181210
RWRALY

NEW YORK STATE HOURLY WEATHER ROUNDUP
NATIONAL WEATHER SERVICE ALBANY NY
800 AM EDT THU SEP 18 2014

NOTE: "FAIR" INDICATES FEW OR NO CLOUDS BELOW 12,000 FEET WITH NO
SIGNIFICANT WEATHER AND/OR NO OBSTRUCTIONS TO VISIBILITY.

NYZ032-033-038>043-046>054-057>066-NYZ062>081-181300-
EAST


CITY           SKY/WX    TMP DP  RH WIND       PRES   REMARKS
ALBANY         MOSUNNY   48  45  89 S3        30.02R
GLENS FALLS    CLOUDY    49  47  93 CALM      30.00R
POUGHKEEPSIE   CLOUDY    47  44  90 CALM      30.02R
NEWBURGH       SUNNY     48  46  93 CALM      30.03R
MONTGOMERY     MOSUNNY   45  43  93 CALM      30.02R
WHITE PLAINS   SUNNY     55  48  77 NW6       30.00R
ISLIP          MOSUNNY   61  56  83 NW3       29.98R
NEW YORK CITY  MOSUNNY   62  48  60 N3        30.00R
CENTRAL PARK   PTSUNNY   59  47  64 VRB3      30.03R
$$

NYZ005>009-017-018-044>046-055-056-181300-
CENTRAL


CITY           SKY/WX    TMP DP  RH WIND       PRES   REMARKS
FULTON         PTSUNNY   52  49  89 SW3       30.02R
SYRACUSE       MOSUNNY   52  48  86 CALM      30.02R
ROME           CLOUDY    48  46  93 CALM      30.04R
ELMIRA         FOG       47  47 100 SW6       30.04S VSB 1/2
BINGHAMTON     SUNNY     47  45  93 CALM      30.03R
MONTICELLO     PTSUNNY   43  41  93 CALM      30.04R
$$

NYZ026>034-041>043-181300-
NORTH


CITY           SKY/WX    TMP DP  RH WIND       PRES   REMARKS
WATERTOWN      CLOUDY    51  41  68 N14       30.06R
FORT DRUM      NOT AVBL
MASSENA        CLOUDY    46  41  82 NW10      30.08R
SARANAC LAKE   CLOUDY    46  44  93 CALM      30.00R
PLATTSBURGH    CLOUDY    50  47  89 N15       30.02R
$$

NYZ001>004-010>016-019>021-181300-
WEST


CITY           SKY/WX    TMP DP  RH WIND       PRES   REMARKS
NIAGARA FALLS  MOSUNNY   47  44  90 CALM      30.04R
BUFFALO        MOSUNNY   53  49  86 CALM      30.04R
DUNKIRK        SUNNY     52  48  86 SW5       30.05R
JAMESTOWN      CLOUDY    43  41  93 CALM      30.06R VSB<1/4
WELLSVILLE     FOG       42  41  96 CALM      30.06S VSB 3/4
ROCHESTER      PTSUNNY   49  47  93 SW7       30.04R
PENN YAN       SUNNY     53  51  93 SW7       30.03R
$$

             KEY
       WCI = WIND CHILL INDEX
       VSB = VISIBILITY
       HX  = HEAT INDEX
$$


USA.gov is the U.S. government's official web portal to all federal, state and local government web resources and services.